Temperature
9 9 9 9 8 8 8 8 7 6 4 3 3 3 3 3 4 4 4 4 4 4 4 4 4 4 4 4 4 5 5 5 5 6 6 6 6 6 6 7 6 7 6
9 9 8 8 8 8 7 6 4 3 3 2 2 2 3 3 3 3 3 3 3 3 3 3 3 3 3 3 4 5 5 5 6 6 6 6 5 5 6 6 5 5 5
8 8 8 7 7 6 5 3 3 2 2 2 2 2 2 2 3 2 2 2 2 2 2 2 2 3 3 3 4 5 5 6 6 6 6 6 5 5 5 4 4 4 4
7 7 6 6 4 3 2 1 1 1 1 1 2 2 2 2 2 2 2 2 2 2 3 3 3 3 4 4 5 6 6 6 6 6 6 6 5 4 4 4 4 3 3
5 4 3 2 2 1 1 0 0 1 1 1 1 1 1 1 1 2 2 2 2 2 3 3 3 4 4 5 5 6 6 6 6 6 6 5 4 4 4 3 3 3 2
2 1 1 -0 -0 -0 -0 -0 0 1 1 1 1 1 1 1 1 1 2 2 2 3 3 3 3 4 4 5 6 6 6 7 6 6 6 5 4 4 3 3 3 2 2
0 -0 -1 -1 -1 -1 -0 1 1 1 1 0 0 0 0 1 1 1 2 2 2 2 3 3 4 4 4 5 6 6 7 7 7 7 6 5 4 4 3 2 2 3 2
-1 -1 -1 -1 -1 0 1 1 1 1 0 0 0 0 0 0 1 1 2 2 2 2 3 3 4 4 4 5 5 6 6 7 7 7 6 5 5 4 3 3 2 1 0
-1 -1 -1 -1 0 1 1 1 1 0 0 0 1 1 1 0 0 0 1 2 2 2 2 3 3 4 4 4 5 6 6 6 6 6 6 5 4 4 3 2 1 1 -1
-1 -0 0 1 1 1 1 1 0 1 1 1 1 1 2 2 1 1 1 1 2 2 2 2 3 3 3 4 4 5 5 5 5 4 4 3 2 2 2 2 2 1 -0
0 1 1 1 1 1 1 1 1 1 1 1 1 1 2 2 2 2 2 2 2 2 2 2 3 3 3 3 3 3 3 3 4 3 2 1 1 1 1 1 1 1 1
1 1 1 1 1 2 2 2 2 2 1 1 1 2 2 2 2 2 2 2 2 2 2 2 2 3 2 2 2 2 2 2 2 1 1 1 1 1 0 0 0 0 1
1 1 2 2 2 2 2 2 2 2 1 1 2 2 2 2 2 1 1 1 2 2 1 2 2 3 2 2 2 2 2 1 1 1 1 1 0 0 0 0 0 0 0
2 2 2 2 2 2 2 1 2 2 2 2 2 1 1 1 1 0 -0 -0 0 1 1 2 2 2 2 3 2 2 2 2 2 1 1 1 0 0 1 0 -0 0 -0
2 3 3 3 3 3 2 2 2 2 2 2 2 1 0 -0 -1 -1 -1 -1 -1 -1 0 1 1 1 2 2 2 2 2 2 2 2 1 1 1 1 1 1 0 0 0
3 3 3 3 3 3 2 2 2 2 1 1 1 0 -0 -1 -1 -2 -2 -2 -2 -1 -1 -0 -0 -0 0 1 1 2 2 2 2 2 2 1 2 2 1 1 1 1 0
4 3 3 3 3 3 2 2 2 2 1 1 1 0 1 -0 -2 -2 -3 -3 -3 -2 -2 -2 -1 -1 -1 -0 0 1 1 1 2 2 2 1 2 2 1 1 1 1 0
4 4 4 3 3 3 3 3 3 2 2 1 0 1 0 -0 -2 -2 -3 -3 -3 -3 -3 -3 -3 -2 -1 -1 -1 -0 0 1 1 2 2 2 1 1 1 1 1 1 -0
5 5 4 4 3 3 3 3 3 2 2 1 1 0 -0 -2 -3 -3 -3 -3 -3 -4 -4 -3 -3 -3 -3 -2 -1 -1 -0 0 1 1 2 2 1 1 1 2 2 1 -0
5 5 5 4 4 3 3 2 2 2 1 1 0 -0 -1 -2 -3 -3 -3 -3 -3 -3 -4 -4 -4 -3 -3 -3 -2 -2 -1 -0 0 1 1 1 1 1 1 2 1 1 -0
5 5 4 4 3 3 3 2 2 1 1 0 -0 -1 -1 -2 -3 -3 -3 -4 -4 -4 -4 -4 -4 -4 -4 -4 -3 -2 -1 -0 0 1 1 1 1 1 1 2 2 1 1
5 5 4 4 3 3 2 2 1 1 0 -0 -0 -1 -1 -2 -3 -3 -4 -4 -4 -4 -4 -4 -4 -4 -4 -4 -3 -3 -2 -1 -0 1 1 1 1 1 1 2 1 1 1
4 4 4 4 3 3 2 1 1 0 0 -0 -1 -1 -2 -3 -3 -3 -4 -4 -4 -4 -4 -4 -4 -4 -4 -3 -3 -3 -2 -1 -0 -0 0 1 1 1 1 1 1 1 1
4 4 4 3 3 2 2 1 1 0 -0 -1 -1 -1 -2 -2 -3 -3 -4 -4 -4 -4 -4 -4 -4 -4 -4 -3 -3 -2 -2 -1 -1 -0 0 1 1 1 1 1 1 1 1
4 4 3 3 2 2 1 1 0 0 -0 -1 -1 -1 -2 -2 -3 -3 -3 -4 -4 -4 -4 -4 -4 -4 -3 -3 -3 -2 -1 -1 -1 0 0 1 1 0 1 0 0 0 1
4 4 3 3 2 2 2 1 1 0 0 -0 -0 -1 -1 -2 -2 -3 -3 -3 -4 -4 -4 -4 -4 -3 -3 -3 -2 -2 -1 -1 -0 0 0 0 0 0 0 0 0 0 1
Wind_Speed
8 7 8 8 8 9 9 9 7 6 7 10 11 11 11 11 11 11 11 12 12 13 13 13 14 14 10 10 10 9 9 10 11 6 3 4 4 6 6 9 10 11 12
6 6 7 8 9 10 9 8 8 8 8 10 10 10 12 14 13 13 13 13 13 14 15 15 15 13 13 12 11 11 11 10 11 8 4 4 4 6 9 10 8 11 14
7 8 9 9 10 10 9 9 9 10 10 11 10 12 14 14 13 12 12 12 13 14 15 16 16 16 17 14 14 12 10 10 10 7 6 4 4 6 10 10 11 9 12
7 8 9 9 9 10 9 9 10 11 11 12 12 12 12 12 12 11 12 13 14 14 15 16 17 17 16 15 14 14 12 11 10 8 10 9 9 7 9 11 11 9 8
7 8 9 9 9 9 9 9 11 12 11 10 10 10 10 10 10 12 12 12 12 13 13 14 14 17 20 17 13 12 12 11 9 10 11 9 9 10 9 8 13 11 9
8 10 10 8 7 8 10 10 11 9 8 7 8 9 9 9 13 16 11 8 10 11 12 11 12 13 14 16 18 16 13 12 8 10 9 14 14 12 12 13 14 12 6
9 11 10 8 9 10 10 11 8 6 6 6 6 8 10 11 16 16 15 9 9 11 12 12 11 9 11 10 13 15 13 12 16 15 15 15 14 15 16 13 10 10 9
11 11 10 10 10 10 11 6 3 2 3 5 5 6 8 12 16 17 18 10 9 11 14 15 13 10 9 5 3 2 2 7 12 11 14 14 15 16 15 15 15 15 13
11 10 11 10 9 10 7 3 2 3 4 6 7 8 8 10 15 17 15 11 10 12 13 15 15 11 14 13 9 8 8 9 13 18 19 21 23 24 22 18 15 16 12
11 10 9 8 7 6 4 3 3 3 4 5 6 7 9 9 11 14 13 8 9 10 11 14 18 17 19 17 12 11 15 15 19 22 24 24 22 22 21 16 15 14 12
9 8 7 6 4 3 3 3 4 5 5 6 7 8 8 10 12 17 14 6 6 8 9 11 13 19 19 19 16 14 15 16 20 19 17 16 14 13 12 11 10 10 10
6 5 5 5 5 5 6 6 5 5 7 8 7 8 8 10 13 17 19 14 11 9 9 9 12 18 19 17 14 16 16 15 13 13 12 11 11 11 11 12 10 7 11
5 6 6 6 6 7 7 7 6 7 6 6 7 8 9 9 11 16 17 18 17 13 11 14 16 18 17 14 16 16 12 9 10 10 10 10 9 10 12 11 8 9 16
6 6 6 6 7 8 7 6 6 6 6 7 6 7 7 8 8 8 9 11 14 13 11 13 15 14 14 15 13 10 8 8 8 8 9 9 8 9 9 9 10 11 10
4 5 6 6 6 6 6 5 5 4 4 5 5 4 5 6 8 12 11 11 10 11 10 9 11 11 12 12 11 10 8 8 8 8 9 9 7 8 10 11 12 11 10
2 3 3 4 4 5 5 6 5 7 12 15 12 8 7 9 14 16 16 19 19 15 10 10 11 11 11 11 10 9 9 7 6 7 8 8 8 10 11 10 11 12 11
5 5 3 2 2 3 4 5 6 8 11 16 16 14 13 13 15 16 16 16 17 14 10 10 10 10 9 9 9 8 7 6 5 6 7 8 9 11 12 12 12 12 10
1 4 5 4 2 2 4 4 4 4 7 8 9 10 14 16 16 16 15 12 11 10 9 9 9 9 8 8 8 8 7 6 5 5 5 8 9 11 11 10 11 12 10
5 4 4 4 3 2 3 5 5 7 7 6 5 7 11 12 12 13 12 9 9 9 9 8 8 8 7 7 7 7 7 6 5 4 4 7 7 10 10 9 10 13 12
7 8 8 6 5 5 5 6 7 7 8 7 6 4 4 6 6 7 9 9 8 8 9 8 8 8 8 7 6 6 6 6 5 3 5 7 7 9 10 10 11 11 9
8 8 10 9 8 6 6 6 6 7 7 7 5 5 7 5 5 6 8 9 9 9 9 8 8 7 7 7 6 6 6 6 5 4 5 7 8 8 9 9 10 11 11
8 8 9 8 8 8 7 7 7 7 8 8 6 7 10 7 6 6 7 8 9 8 8 8 7 7 6 6 6 6 5 5 6 5 5 8 8 9 9 9 10 12 12
8 9 9 9 8 9 10 8 7 7 8 8 8 7 5 6 6 7 7 8 7 8 9 9 8 7 8 8 8 5 4 4 4 3 4 7 9 9 9 9 11 12 12
9 9 9 8 9 8 8 7 8 9 9 9 9 8 7 7 8 8 8 8 8 8 11 11 10 9 10 10 9 8 6 5 6 5 5 7 10 10 10 9 10 11 10
8 9 8 8 8 8 8 8 8 8 8 9 9 9 9 8 7 9 9 8 8 9 11 13 13 13 14 14 12 10 8 8 9 8 8 7 10 10 10 10 10 10 9
9 9 8 8 7 7 8 8 8 8 8 8 8 8 9 9 9 10 9 10 10 10 12 14 16 17 17 16 16 15 12 11 12 10 11 9 9 9 9 8 9 9 8
Wind_Direction
17 8 3 348 336 331 329 328 314 306 312 310 312 309 297 280 282 289 289 288 284 283 281 279 273 271 268 266 262 253 240 235 246 235 176 149 138 112 83 62 41 55 67
10 358 344 331 333 332 326 317 311 307 301 302 304 296 293 297 298 294 291 286 284 285 285 283 279 278 272 266 260 252 243 234 234 227 156 140 121 123 106 90 73 63 72
356 342 326 326 328 322 314 313 309 306 306 306 303 302 301 300 298 296 294 294 292 288 284 280 276 269 262 258 254 252 244 236 225 208 149 137 134 126 112 102 88 77 73
334 327 319 316 315 307 298 299 302 306 307 307 306 302 303 305 305 309 311 303 295 289 283 277 269 261 255 255 251 242 240 236 223 187 153 152 145 138 127 122 106 88 72
313 301 289 284 290 294 288 298 306 308 311 312 313 317 319 318 321 321 308 301 299 298 294 289 282 273 263 263 268 249 235 231 217 166 150 149 149 149 142 133 117 106 76
296 288 281 280 298 302 303 311 309 312 317 323 332 331 329 327 322 321 323 317 314 312 309 309 306 296 285 278 279 275 259 219 173 157 156 155 160 151 143 141 131 125 102
297 303 310 318 311 310 310 311 318 324 333 341 344 345 343 340 341 340 342 334 321 322 328 332 325 311 298 277 271 268 260 213 170 158 159 162 156 150 140 134 128 113 110
312 314 320 314 312 311 310 314 319 319 337 325 319 325 331 330 334 344 343 333 330 341 349 353 346 331 323 297 285 309 243 176 154 147 146 143 137 135 131 123 115 110 108
318 322 315 312 311 310 314 311 322 324 309 303 299 309 316 318 331 341 344 341 347 353 354 356 360 5 11 34 41 54 68 92 94 101 110 117 123 125 125 122 125 125 120
318 313 307 308 306 311 323 345 343 316 305 308 317 331 334 334 332 333 340 340 344 352 357 357 8 21 26 33 45 62 74 88 99 97 99 102 109 115 120 126 135 132 127
315 317 317 321 337 338 337 342 332 332 344 2 360 346 345 351 348 350 354 5 7 12 13 7 12 22 32 37 49 64 79 89 97 101 105 109 112 113 117 118 125 132 130
323 344 2 18 37 16 6 359 1 18 41 31 12 6 4 2 5 6 20 24 20 29 21 17 16 22 35 39 51 62 74 87 95 101 107 113 116 121 120 122 134 129 120
17 22 11 14 31 26 28 29 35 46 46 33 29 23 12 12 12 10 16 18 19 22 20 17 20 26 29 37 43 47 65 86 98 105 108 113 116 123 128 135 117 113 125
19 16 12 27 36 30 33 38 49 37 27 30 33 30 23 18 7 13 21 20 19 17 13 17 20 29 30 30 35 35 50 68 87 99 104 111 112 120 124 123 117 123 118
357 6 14 21 26 23 30 32 41 32 37 27 25 57 52 40 31 33 36 38 30 21 18 24 27 24 26 26 26 28 40 60 79 94 106 118 115 104 109 117 122 119 113
318 331 357 8 14 23 27 22 17 23 39 54 49 71 56 39 30 27 27 35 28 22 29 31 30 26 25 19 18 21 33 46 63 90 104 113 105 108 111 110 116 119 120
209 205 237 277 355 9 18 23 12 2 45 63 67 74 74 53 37 29 26 28 28 25 31 31 28 26 21 17 15 16 18 26 61 82 106 112 110 112 114 117 120 119 117
132 177 194 210 239 310 342 356 10 29 50 62 64 69 67 51 36 29 23 28 33 32 29 27 25 20 20 17 12 11 9 14 42 73 96 112 114 119 118 119 124 124 120
82 89 107 124 128 94 49 42 44 49 54 61 55 50 52 41 25 27 26 34 33 32 27 22 19 16 17 16 13 9 8 11 24 62 109 120 112 120 119 121 127 125 122
60 69 77 83 85 75 61 52 46 46 44 49 55 48 39 32 21 40 36 30 29 25 25 21 16 9 10 16 12 9 10 10 15 36 107 118 109 114 119 125 129 126 119
62 56 62 67 65 63 59 56 52 48 42 49 51 60 60 42 10 24 37 34 26 20 18 19 16 9 3 8 13 9 8 7 7 20 97 113 110 113 116 120 125 122 117
65 62 63 63 63 61 57 51 48 43 34 38 33 45 49 37 23 11 28 37 29 21 16 15 12 8 -0 358 3 6 7 6 6 12 78 102 113 111 110 113 122 125 127
74 71 67 64 63 60 55 47 44 41 38 35 38 37 34 35 31 23 17 25 31 24 18 15 10 5 1 357 355 356 357 349 349 25 77 100 111 109 111 118 126 129 132
76 75 72 68 66 61 53 47 41 41 40 36 34 33 28 38 39 27 12 17 23 20 19 17 10 5 2 2 356 358 6 15 31 71 83 105 113 112 111 112 115 119 122
80 78 75 72 69 63 58 53 47 39 37 39 35 30 25 23 28 33 18 12 24 18 15 16 13 8 5 7 7 12 33 58 80 92 87 101 107 110 108 110 117 117 119
81 80 76 72 67 63 64 62 53 44 38 36 32 31 28 25 23 24 19 13 19 18 15 15 12 11 9 8 13 30 48 79 97 89 85 95 97 100 106 112 119 120 118
Height
1518 1516 1514 1509 1503 1498 1492 1486 1484 1479 1473 1469 1463 1457 1454 1453 1448 1441 1437 1435 1432 1429 1426 1423 1420 1419 1417 1417 1417 1417 1416 1417 1417 1419 1420 1421 1422 1421 1422 1423 1424 1425 1424
1514 1512 1508 1503 1497 1491 1486 1481 1475 1469 1465 1460 1455 1451 1447 1443 1437 1433 1429 1426 1422 1419 1415 1412 1409 1407 1406 1407 1407 1406 1407 1409 1411 1413 1413 1415 1418 1419 1420 1422 1422 1425 1426
1509 1504 1499 1494 1487 1481 1477 1472 1467 1461 1456 1452 1449 1445 1440 1435 1430 1426 1422 1417 1413 1409 1405 1401 1397 1395 1394 1395 1396 1397 1398 1400 1402 1406 1405 1409 1413 1417 1419 1421 1421 1425 1427
1502 1496 1490 1484 1479 1474 1470 1465 1460 1456 1452 1448 1444 1440 1435 1429 1425 1420 1415 1411 1407 1402 1397 1393 1389 1387 1387 1387 1387 1387 1389 1391 1395 1398 1399 1404 1408 1413 1416 1418 1419 1424 1427
1495 1489 1483 1478 1473 1469 1465 1461 1457 1453 1449 1445 1441 1436 1431 1426 1421 1416 1412 1407 1402 1397 1392 1386 1382 1381 1380 1380 1379 1379 1381 1383 1386 1388 1392 1398 1402 1407 1413 1416 1417 1423 1428
1487 1482 1478 1474 1469 1465 1461 1457 1453 1450 1446 1442 1438 1434 1429 1425 1420 1415 1411 1406 1401 1395 1388 1382 1378 1375 1372 1371 1372 1373 1375 1376 1379 1382 1384 1391 1397 1402 1408 1412 1416 1422 1428
1481 1476 1473 1469 1464 1461 1457 1454 1451 1449 1445 1441 1437 1434 1429 1425 1420 1416 1412 1407 1401 1394 1387 1380 1375 1371 1367 1365 1366 1367 1368 1370 1373 1377 1380 1386 1391 1397 1403 1411 1417 1419 1424
1476 1472 1468 1464 1460 1457 1454 1452 1450 1448 1446 1441 1438 1434 1430 1424 1420 1416 1412 1406 1401 1395 1388 1382 1375 1369 1364 1362 1361 1361 1363 1366 1370 1375 1377 1382 1388 1395 1403 1409 1414 1420 1427
1472 1468 1464 1460 1458 1456 1454 1452 1451 1448 1446 1442 1439 1436 1432 1427 1422 1417 1412 1408 1403 1397 1391 1385 1377 1371 1365 1362 1360 1359 1361 1364 1369 1374 1378 1383 1388 1394 1400 1408 1416 1421 1427
1470 1467 1464 1462 1460 1458 1456 1454 1452 1449 1446 1444 1442 1438 1434 1431 1426 1420 1414 1410 1405 1400 1394 1388 1382 1377 1372 1368 1365 1363 1362 1364 1368 1374 1379 1385 1391 1398 1406 1413 1417 1421 1425
1473 1470 1467 1465 1462 1460 1458 1456 1454 1452 1449 1447 1444 1440 1437 1434 1430 1425 1419 1414 1410 1404 1399 1394 1389 1384 1380 1376 1373 1370 1369 1370 1372 1378 1385 1392 1398 1406 1412 1417 1420 1424 1426
1476 1474 1471 1468 1465 1463 1460 1458 1456 1454 1452 1450 1447 1443 1440 1436 1432 1428 1423 1418 1414 1409 1405 1400 1396 1392 1389 1385 1383 1382 1381 1381 1383 1387 1394 1400 1405 1410 1415 1420 1425 1429 1432
1479 1476 1474 1471 1468 1465 1463 1462 1460 1459 1457 1454 1451 1448 1444 1440 1436 1431 1426 1421 1417 1413 1409 1406 1403 1399 1397 1395 1393 1392 1392 1392 1394 1397 1401 1406 1410 1414 1419 1424 1429 1433 1438
1482 1480 1477 1475 1472 1470 1468 1467 1466 1464 1462 1458 1455 1452 1448 1444 1438 1432 1427 1423 1420 1417 1414 1411 1408 1406 1402 1401 1401 1401 1402 1402 1403 1405 1407 1411 1416 1420 1425 1429 1433 1438 1443
1487 1485 1483 1481 1478 1477 1475 1473 1471 1468 1466 1463 1459 1456 1451 1445 1441 1436 1431 1427 1423 1420 1417 1414 1412 1409 1407 1406 1407 1407 1408 1409 1410 1412 1414 1418 1421 1425 1430 1435 1439 1444 1448
1491 1490 1488 1486 1485 1483 1481 1478 1476 1473 1469 1466 1462 1458 1454 1450 1445 1440 1435 1431 1428 1425 1421 1417 1416 1415 1413 1413 1413 1413 1414 1416 1418 1419 1421 1424 1427 1430 1435 1440 1444 1447 1451
1492 1492 1491 1490 1488 1486 1484 1481 1479 1477 1474 1470 1467 1463 1459 1453 1448 1444 1440 1436 1432 1429 1425 1423 1421 1420 1419 1418 1417 1418 1419 1421 1423 1425 1427 1430 1433 1436 1439 1443 1447 1451 1454
1494 1493 1493 1492 1491 1490 1488 1485 1483 1481 1478 1475 1472 1468 1465 1459 1454 1449 1445 1440 1436 1433 1430 1428 1426 1424 1423 1422 1422 1421 1423 1424 1426 1429 1432 1434 1437 1440 1444 1448 1451 1454 1458
1499 1497 1496 1496 1495 1495 1493 1491 1488 1486 1482 1479 1476 1473 1469 1463 1458 1454 1449 1444 1441 1438 1435 1432 1430 1428 1426 1425 1425 1425 1426 1427 1429 1431 1434 1437 1440 1444 1448 1452 1455 1459 1463
1503 1502 1501 1500 1500 1499 1497 1494 1491 1489 1485 1482 1480 1476 1472 1466 1460 1457 1452 1449 1445 1442 1439 1436 1433 1431 1429 1427 1427 1428 1429 1430 1431 1433 1435 1439 1443 1448 1451 1455 1459 1463 1467
1508 1507 1506 1504 1504 1502 1500 1498 1495 1492 1488 1485 1483 1480 1476 1470 1465 1461 1457 1452 1449 1445 1442 1439 1435 1433 1431 1430 1429 1429 1431 1432 1433 1435 1437 1441 1445 1451 1455 1459 1462 1466 1470
1513 1511 1510 1509 1507 1505 1503 1501 1498 1495 1492 1489 1486 1483 1479 1474 1469 1465 1461 1457 1453 1449 1445 1441 1438 1436 1434 1432 1432 1432 1433 1435 1437 1438 1441 1445 1449 1454 1459 1462 1466 1470 1474
1516 1515 1514 1513 1511 1509 1507 1505 1502 1499 1496 1492 1489 1486 1482 1478 1473 1469 1465 1461 1456 1452 1448 1444 1441 1438 1436 1435 1435 1435 1436 1439 1440 1442 1445 1449 1453 1457 1462 1466 1469 1472 1477
1520 1519 1518 1516 1515 1513 1511 1508 1506 1503 1499 1496 1493 1489 1486 1482 1478 1473 1469 1464 1460 1456 1451 1447 1444 1441 1439 1438 1437 1438 1440 1442 1444 1445 1448 1453 1457 1461 1465 1469 1473 1476 1480
1524 1523 1522 1521 1519 1517 1515 1512 1509 1506 1503 1500 1496 1493 1489 1485 1481 1477 1473 1468 1464 1459 1455 1451 1447 1445 1443 1442 1442 1442 1444 1446 1447 1450 1454 1458 1462 1466 1469 1473 1476 1480 1484
1528 1527 1526 1524 1523 1521 1519 1516 1513 1511 1508 1504 1501 1497 1493 1489 1486 1481 1477 1472 1467 1463 1459 1455 1452 1450 1448 1448 1447 1448 1449 1450 1452 1455 1459 1463 1466 1470 1473 1477 1480 1484 1488